This demonstration page uses our WeatherBlox Daily Observations layout. Learn more.

Left ArrowRight Arrow

38.88101, -77.10428

Hourly Observations for December 30, 2019

Temp ( °F °C ) Dew Point ( °F °C ) Humidity (%) Winds ( mph kmh ) Pressure ( in mb ) Visibility ( mi km ) Precip ( " mm )
12:08 am 00:08 Cloudy with Mist and Fog 51 10.6 51 10.6 100 100 N 5 7 29.82 1010 3 5 N/A
12:21 am 00:21 Cloudy with Light Rain 50 10 50 10 100 100 NNE 7 11 29.80 1009 1 2 0.00 0.00
12:42 am 00:42 Mostly Cloudy with Fog 50 10 50 10 100 100 NNE 8 13 29.79 1009 0 0 0.00 0.00
12:52 am 00:52 Mostly Cloudy with Fog 50 10 50 10 100 100 NE 8 13 29.78 1008 0 0 0.00 0.00
1:38 am 01:38 Cloudy with Light Rain 50 10 50 10 100 100 NNE 7 11 29.76 1008 2 3 0.03 0.76
1:52 am 01:52 Cloudy with Light Rain 51 10.6 50 10 96 96 NNE 6 9 29.75 1007 3 5 0.05 1.27
2:52 am 02:52 Cloudy with Drizzle 52 11.1 51 10.6 97 97 N 7 11 29.73 1007 1 2 0.02 0.51
3:20 am 03:20 Mostly Cloudy with Drizzle 50 10 50 10 100 100 NE 7 11 29.71 1006 0 0 0.02 0.51
3:50 am 03:50 Cloudy with Mist and Fog 54 12 52 11 94 94 NW 7 11 29.70 1006 6 10 0.02 0.51
3:52 am 03:52 Cloudy with Mist and Fog 53 11.7 52 11.1 96 96 NW 6 9 29.70 1006 5 8 0.03 0.76
4:14 am 04:14 Cloudy with Mist and Fog 50 10 50 10 100 100 N 5 7 29.69 1005 2 2 N/A
4:18 am 04:18 Cloudy with Mist and Fog 50 10 50 10 100 100 N 5 7 29.69 1005 5 8 N/A
4:52 am 04:52 Cloudy with Fog 51 10.6 51 10.6 100 100 NNE 6 9 29.66 1005 3 5 0.00 0.00
5:52 am 05:52 Cloudy with Fog 50 10 49 9.4 96 96 N N/A 29.64 1004 3 5 N/A
6:26 am 06:26 Cloudy with Mist and Fog 53 11.7 52 11.1 96 96 N 5 7 29.65 1004 3 5 N/A
6:46 am 06:46 Cloudy with Mist and Fog 52 11 50 10 94 94 N N/A 29.63 1003 5 8 N/A
6:52 am 06:52 Cloudy with Mist and Fog 51 10.6 51 10.6 100 100 N N/A 29.62 1003 5 8 N/A
7:05 am 07:05 Cloudy with Mist and Fog 53 11.7 53 11.7 100 100 SSW 3 6 29.63 1003 5 8 N/A
7:16 am 07:16 Cloudy 59 15 58 14.4 96 96 S 6 9 29.62 1003 7 11 N/A
7:52 am 07:52 Cloudy with Patchy Fog 58 14.4 58 14.4 100 100 S 8 13 29.61 1003 9 14 N/A
8:52 am 08:52 Cloudy 63 17.2 61 16.1 93 93 S 9 15 29.61 1003 10 16 N/A
9:42 am 09:42 Cloudy 61 16.1 60 15.6 97 97 S 12 19 29.61 1003 10 16 N/A
9:52 am 09:52 Cloudy 61 16.1 60 15.6 97 97 S 10 17 29.60 1003 10 16 N/A
10:14 am 10:14 Cloudy 62 16.7 60 15.6 93 93 S 12 19 29.60 1002 10 16 N/A
10:52 am 10:52 Cloudy with Light Rain 66 18.9 63 17.2 90 90 W 7 11 29.61 1003 9 14 0.01 0.25
10:56 am 10:56 Cloudy 65 18.3 63 17.2 93 93 NW 12 19 29.62 1003 10 16 0.00 0.00
10:59 am 10:59 Cloudy with Light Rain 64 17.8 62 16.7 93 93 NW 15 24 29.61 1003 10 16 0.00 0.00
11:04 am 11:04 Cloudy with Light Rain 62 16.7 60 15.6 93 93 NW 17 28 29.61 1003 3 5 0.00 0.00
11:13 am 11:13 Cloudy with Rain 60 15.6 58 14.4 93 93 WNW 13 20 29.62 1003 3 5 0.04 1.02
11:16 am 11:16 Cloudy with Rain 60 15.6 58 14.4 93 93 NW 12 19 29.62 1003 2 3 0.05 1.27
11:24 am 11:24 Cloudy with Light Rain 59 15 57 13.9 93 93 NW 13 20 29.62 1003 3 4 0.06 1.52
11:43 am 11:43 Cloudy with Light Rain 56 13.3 55 12.8 97 97 N 6 9 29.61 1003 3 5 0.09 2.29
11:52 am 11:52 Cloudy with Light Rain 56 13.3 55 12.8 97 97 NNE 5 7 29.61 1003 2 3 0.10 2.54
11:55 am 11:55 Cloudy with Light Rain 55 12.8 55 12.8 100 100 N 5 7 29.61 1003 2 3 0.00 0.00
12:08 pm 12:08 Cloudy with Light Rain 55 12.8 55 12.8 100 100 N N/A 29.60 1002 4 6 0.01 0.25
12:17 pm 12:17 Cloudy with Light Rain 56 13.3 56 13.3 100 100 NW 7 11 29.61 1003 2 3 0.01 0.25
12:27 pm 12:27 Cloudy with Light Rain 59 15 57 13.9 93 93 WNW 3 6 29.62 1003 4 6 0.03 0.76
12:52 pm 12:52 Mostly Cloudy 61 16.1 58 14.4 90 90 NNE 5 7 29.60 1002 9 14 0.05 1.27
1:52 pm 13:52 Mostly Cloudy 62 16.7 59 15 90 90 NE 5 7 29.58 1002 10 16 N/A
2:52 pm 14:52 Mostly Cloudy 62 16.7 56 13.3 80 80 NE 5 7 29.59 1002 10 16 N/A
3:52 pm 15:52 Mostly Cloudy 63 17.2 56 13.3 78 78 NE 5 7 29.61 1003 10 16 N/A
4:52 pm 16:52 Mostly Cloudy 57 13.9 52 11.1 83 83 NE 8 13 29.62 1003 10 16 N/A
5:28 pm 17:28 Mostly Cloudy 53 11.7 52 11.1 96 96 NE 17 28 29.64 1004 9 14 N/A
5:33 pm 17:33 Mostly Cloudy 53 11.7 52 11.1 96 96 ENE 16 26 29.65 1004 9 14 N/A
5:52 pm 17:52 Cloudy 52 11.1 51 10.6 97 97 NE 15 24 29.66 1004 9 14 N/A
6:32 pm 18:32 Cloudy with Mist and Fog 50 10 49 9.4 96 96 NE 16 26 29.68 1005 6 10 N/A
6:52 pm 18:52 Cloudy 50 10 48 8.9 93 93 NE 15 24 29.70 1006 9 14 N/A
6:55 pm 18:55 Cloudy 49 9.4 48 8.9 97 97 ENE 14 22 29.70 1006 9 14 N/A
7:52 pm 19:52 Cloudy 48 8.9 46 7.8 93 93 ENE 12 19 29.72 1007 9 14 N/A
8:25 pm 20:25 Cloudy 48 8.9 45 7.2 89 89 ENE 13 20 29.73 1007 9 14 N/A
8:52 pm 20:52 Cloudy 47 8.3 44 6.7 90 90 ENE 13 20 29.72 1006 10 16 N/A
9:52 pm 21:52 Cloudy 47 8.3 43 6.1 86 86 ENE 13 20 29.74 1007 10 16 N/A
10:52 pm 22:52 Cloudy 46 7.8 43 6.1 89 89 ENE 9 15 29.72 1007 9 14 N/A
11:20 pm 23:20 Cloudy 46 7.8 43 6.1 89 89 NNE 10 17 29.73 1007 8 13 N/A
11:52 pm 23:52 Cloudy 45 7.2 43 6.1 93 93 N 8 13 29.73 1007 7 11 N/A

Powered by AerisWeather